This is the latest recevied weather packets stored in our database for station/object IR1CH-3. If no packets are shown the sender has not sent any weather packets the latest 10 day(s).
| Time | Temp. | Humidity | Pressure | Rain* | Wind** | Luminosity | Snow |
|---|---|---|---|---|---|---|---|
| 1777254013 | 14.44° C | 95% | 1018.8 hPa | - | - | - | - |
| 1777252212 | 14.44° C | 94% | 1019 hPa | - | - | - | - |
| 1777250412 | 15° C | 93% | 1019.1 hPa | - | - | - | - |
| 1777248612 | 15° C | 95% | 1019.5 hPa | - | - | - | - |
| 1777246811 | 15° C | 99% | 1019.6 hPa | - | - | - | - |
| 1777245011 | 15° C | 99% | 1019.6 hPa | - | - | - | - |
| 1777243211 | 15.56° C | 99% | 1019.5 hPa | - | - | - | - |
| 1777241410 | 15.56° C | 99% | 1019.6 hPa | - | - | - | - |
| 1777239610 | 16.11° C | 99% | 1019.6 hPa | - | - | - | - |
| 1777237810 | 16.11° C | 99% | 1019.7 hPa | - | - | - | - |
| 1777236009 | 16.11° C | 99% | 1019.7 hPa | - | - | - | - |
| 1777234209 | 16.11° C | 99% | 1019.5 hPa | - | - | - | - |
| 1777232409 | 15.56° C | 99% | 1019.3 hPa | - | - | - | - |
| 1777230608 | 16.11° C | 99% | 1019 hPa | - | - | - | - |
| 1777228808 | 16.11° C | 99% | 1018.8 hPa | - | - | - | - |
| 1777227008 | 15.56° C | 99% | 1018.6 hPa | - | - | - | - |
| 1777225207 | 16.11° C | 99% | 1018.6 hPa | - | - | - | - |
| 1777223407 | 16.11° C | 99% | 1018.5 hPa | - | - | - | - |
| 1777221607 | 16.11° C | 99% | 1018.6 hPa | - | - | - | - |
| 1777219806 | 16.11° C | 99% | 1018.7 hPa | - | - | - | - |
| 1777218006 | 16.67° C | 97% | 1018.7 hPa | - | - | - | - |
| 1777216206 | 17.22° C | 92% | 1018.7 hPa | - | - | - | - |
| 1777214405 | 17.22° C | 96% | 1018.8 hPa | - | - | - | - |
| 1777212605 | 17.22° C | 93% | 1019 hPa | - | - | - | - |
| 1777210805 | 17.78° C | 90% | 1019.1 hPa | - | - | - | - |
* Rain since midnight (hover to see other rain measurements)
** Current wind speed in m/s (hover to see current wind gust speed)